Tracking 18945 objects as of 19-Jan-2018
HD Live streaming from Space Station
objects crossing your sky now

IRIDIUM 131

Track IRIDIUM 131 now!
10-day predictions
IRIDIUM 131 is classified as:


NORAD ID: 43079
Int'l Code: 2017-083K
Perigee: 783.4 km
Apogee: 786.2 km
Inclination: 86.4 °
Period: 100.4 minutes
Semi major axis: 7155 km
RCS: Unknown
Launch date: December 23, 2017
Source: United States (US)
Launch site: AIR FORCE WESTERN TEST RANGE (AFWTR)
aabbcc
Your satellite tracking list
Your tracking list is empty




NASA's NSSDC Master Catalog

Two Line Element Set (TLE):
1 43079U 17083K   18019.53765050  .00000066  00000-0  16556-4 0  9991
2 43079  86.4003 165.2391 0001955  89.2713 270.8707 14.34217550  3986
Source of the keplerian elements: AFSPC